sat.trackr.live / text

‹ back to catalog

AZERSPACE 2 (IS-38)

NORAD 43632 · 2018-074A

PAYLOAD ACTIVE UNKNOWN

§ Identity

Operator
Country
AZER
Launch date
2018-09-25
Launch site
FRGUI
Launch vehicle
Mass (kg)
RCS (m²)

Purposes: comms

External: N2YO · Heavens-Above · Gunter

§ Orbital elements

Epoch: 2026-05-25T03:57:31.025088Z

Period
1,436.11 min
Inclination
0.0203°
Eccentricity
0.0001382
Mean motion
1.00271043 rev/d
Perigee alt
35,781.0 km
Apogee alt
35,792.6 km
Semi-major
42,164.9 km
B*
0.0000e+0
RAAN
300.4649°
Arg perigee
117.5880°
Mean anomaly
289.1906°
Rev number
2,821

§ Raw data

AZERSPACE 2 (IS-38)1 43632U 18074A   26145.16494242  .00000134  00000+0  00000+0 0  99942 43632   0.0203 300.4649 0001382 117.5880 289.1906  1.00271043 28211

JSON: /api/v1/satellites/43632 · /tle

For live sub-satellite position, see the globe view (requires WebGL).

§ Visibility from observer

Set your observer location to see the next 7 days of passes ≥ 10°. The values pass through the URL so the page stays shareable.

No JS? Fill the form by hand. The geolocation button needs JavaScript.